Find Starlink 35057

NORAD ID: 65525 Int'l Des: 2025-200 Owner: SPXS Country: US Constellation: starlink operational
LEOCIRCULARRETROGRADESSO

Live Position

Loading 3D Globe...

About Starlink 35057

Description loading...

Upcoming Passes

Passes for default location (London). Set your location on the main map for personalized predictions.

Altitude History

Loading altitude history...

Two-Line Element Set

1 65525U 25200F 26103.43192524 .00004145 00000-0 29121-3 0 9996
2 65525 97.6020 173.9719 0001082 133.8421 226.2895 15.05660079 34357
Epoch: Apr 13, 2026 • Age: 23 hours

Current Status

Altitude 559.9 km
Velocity 7.58 km/s
Sub-Earth Point -28.16°S, 4.01°E
Launch Date Sep 6, 2025
Age 0.5 years
Type internet

Technical Details

Classification Payload
Mass 575.00 kg
Dry Mass 530.00 kg
Total Mass 575.00 kg
Length 0.30 m
Diameter 4.10 m
Span 29.00 m
Shape Box + pan
Manufacturer SPXS
Bus Type Starlink V2MO
Phase Status In Orbit
Owner/State SPXS/US

Most Searched